Volver al catálogo

DELTA 1 R/B(1)

ActivoLEO
NORAD 10062·ROCKET BODY·🇺🇸 United States

Lanzado Jun 16, 1977 desde Cape Canaveral Space Force Station

Loading…

Próximos Pases (próximas 24 horas)

TLE

ActualizadoSource: Space-Track

Época: Sep 14, 2026, 12:41 UTC

1 10062U 77048B   26257.52847896  .00000192  00000-0  37633-4 0  9994
2 10062  28.4180 357.7955 0726398  21.3689 341.5649 13.39083493399005

Sigue DELTA 1 R/B(1) en tiempo real con AllMySat

Download on the App Store